Regional Weather Roundup
Issued by NWS

Home | Current Version | Previous Version | Text Only | Print | Product List | Glossary Off
Versions: 1 2 3 4 5 6 7 8 9 10 11 12 13 14 15 16 17 18 19 20 21 22 23 24 25 26 27 28 29 30 31 32 33 34 35 36 37 38 39 40 41 42 43 44 45 46 47 48 49 50

000
ASUS43 KFSD 171202
RWRSD

WEATHER ROUNDUP FOR SOUTH DAKOTA
NATIONAL WEATHER SERVICE SIOUX FALLS SD
600 AM CST SUN DEC 17 2017

NOTE: "FAIR" INDICATES FEW OR NO CLOUDS BELOW 12,000 FEET WITH NO
SIGNIFICANT WEATHER AND/OR OBSTRUCTIONS TO VISIBILITY.


SDZ001>005-009-010-012>017-171300-
NORTHWEST AND NORTH CENTRAL SOUTH DAKOTA

CITY           SKY/WX    TMP DP  RH WIND       PRES   REMARKS
BUFFALO          N/A     25  22  88 W5        29.93S WCI  19
FAITH            N/A     25  23  92 CALM      30.01F
MOBRIDGE       CLOUDY    28  24  85 N5        30.01F WCI  23
$$

SDZ012>016-024>037-041>051-057-063-072>074-171300-
SOUTHWEST AND SOUTH CENTRAL SOUTH DAKOTA

CITY           SKY/WX    TMP DP  RH WIND       PRES   REMARKS
RAPID CTY ARPT CLOUDY    29  26  89 W3        30.01F
PIERRE         CLOUDY    30  30 100 NW7       30.04S WCI  23
CUSTER         CLOUDY    23  19  85 CALM      29.92F
ELLSWORTH AFB  CLOUDY    29  29 100 CALM      29.99F
PHILIP         CLOUDY    31  28  89 W6        30.04S WCI  25
PINE RIDGE     CLOUDY    30  29  96 W3        30.02F
SPEARFISH      FAIR      25  25 100 CALM      29.98S
WINNER         CLOUDY    32  30  92 W3        30.05S
$$

SDZ004>011-016>023-039-040-171300-
NORTHEAST SOUTH DAKOTA

CITY           SKY/WX    TMP DP  RH WIND       PRES   REMARKS
ABERDEEN       CLOUDY    24  24 100 CALM      30.05F
WATERTOWN      CLOUDY    27  26  96 S3        30.02F
BROOKINGS      CLOUDY    26  25  96 CALM      30.03F FOG
SISSETON         N/A     30  28  92 S3        30.04F
$$

SDZ017-020-022-023-036>040-048>070-171300-
SOUTHEAST SOUTH DAKOTA

CITY           SKY/WX    TMP DP  RH WIND       PRES   REMARKS
SIOUX FALLS    CLOUDY    24  23  96 CALM      30.05R FOG
HURON          CLOUDY    29  28  96 MISG      30.05F FOG
CHAMBERLAIN    CLOUDY    32  32 100 CALM      30.06R
MITCHELL       CLOUDY    28  28 100 CALM      30.07R
YANKTON        CLOUDY    25  24  96 NW6       30.07R WCI  18
$$

ABBREVIATIONS USED IN REMARKS
   TC - TEMPERATURE IN CELSIUS
  WCI - WIND CHILL INDEX
   HX - HEAT INDEX
  VSB - VISIBILITY





USA.gov is the U.S. government's official web portal to all federal, state and local government web resources and services.